[[{"header":{"parameterUnit":"m.s-1","parameterCategory":1,"la1":30.2992,"la2":30.254,"lo1":-89.0895,"lo2":-89.0443,"dy":0.0025,"dx":0.0025,"nx":19,"ny":19,"refTime":"2026-03-28T09:00:00:Z","depth":0,"parameterNumber":2,"parameterNumberName":"U-component_of_WINDS"},"data":[0,0,0,-8.0936,-8.0941,-8.1171,-8.1172,-8.1494,-8.1497,0,0,0,0,0,0,0,0,0,0,0,-8.0888,-8.0891,-8.0935,-8.0942,-8.1171,-8.1172,-8.1493,-8.1497,0,0,0,0,0,0,0,0,0,0,0,-8.0886,-8.089,-8.0894,-8.0943,-8.1171,-8.1172,-8.1492,-8.1308,0,0,0,0,0,0,0,0,0,0,-8.108,-8.1056,-8.0889,-8.0894,-8.0944,-8.1171,-8.1172,-8.1299,-8.132,-8.1403,0,-8.1484,0,-8.1496,-8.152,-8.1522,0,0,0,-8.0926,-8.1039,-8.1083,-8.0894,-8.0947,-8.1171,-8.1063,-8.131,-8.1334,-8.1431,-8.1488,-8.1499,-8.1501,-8.1523,-8.1524,-8.206,-8.2063,0,0,-8.0913,-8.0939,-8.1067,-8.1099,-8.1069,-8.1056,-8.1071,-8.1324,-8.1388,-8.1489,-8.1506,-8.1507,-8.1525,-8.1528,-8.2056,-8.206,0,0,0,-8.0888,-8.0931,-8.0968,-8.1087,-8.1127,-8.1063,-8.108,-8.1376,-8.1386,-8.151,-8.1511,-8.1527,-8.1531,-8.2053,-8.2058,-8.2241,0,0,0,-8.0879,-8.0916,-8.0963,-8.0981,-8.1123,-8.1255,-8.1127,-8.1369,-8.1397,-8.1509,-8.1527,-8.1535,-8.2049,-8.2056,-8.2228,-8.2322,0,0,0,-8.0866,-8.0914,-8.0954,-8.0982,-8.1082,-8.125,-8.1275,-8.1374,-8.1399,-8.1522,-8.1536,-8.2047,-8.2054,-8.2217,-8.2303,-8.2468,0,0,0,-8.0858,-8.1114,-8.0958,-8.1243,-8.1081,-8.1364,-8.1273,-8.1482,-8.161,-8.1529,-8.205,-8.2057,-8.2213,-8.2292,-8.2456,-8.2609,-8.2676,0,0,-8.1194,-8.1155,-8.1321,-8.1188,-8.1506,-8.1327,-8.167,-8.1762,-8.175,-8.1956,-8.1969,-8.2233,-8.2302,-8.2466,-8.3051,-8.3104,0,0,0,-8.1436,-8.1555,-8.1634,-8.1759,-8.1838,-8.1911,-8.1949,-8.1983,-8.2157,-8.1863,-8.2338,-8.2378,-8.2473,-8.2545,-8.259,-8.2668,-8.2093,-8.2092,-8.2091,-8.1946,-8.1918,-8.219,-8.2191,-8.2313,-8.235,-8.2445,-8.2496,-8.2432,-8.2545,-8.2604,-8.2963,-8.3048,-8.3082,-8.3164,-8.2686,-8.2687,-8.2688,-8.2688,-8.2432,-8.2595,-8.2506,-8.2737,-8.2706,-8.2899,-8.2945,-8.2893,-8.3066,-8.2916,-8.2998,-8.2832,-8.3142,-8.3212,-8.2702,-8.2699,-8.2698,-8.2696,-8.2695,-8.2759,-8.2832,-8.2872,-8.3049,-8.3188,-8.318,-8.3351,-8.3317,-8.3285,-8.3367,-8.3424,-8.3421,-8.341,-8.3398,-8.3399,-8.3401,-8.3402,-8.3402,-8.3403,-8.3081,-8.312,-8.3269,-8.3376,-8.3451,-8.3545,-8.3587,-8.3659,-8.3729,-8.369,-8.3691,-8.3613,-8.318,-8.3069,-8.3422,-8.3419,-8.3416,-8.3415,-8.3413,-8.3577,-8.346,-8.3691,-8.3767,-8.3888,-8.4027,-8.3983,-8.4134,-8.4188,-8.4273,-8.418,-8.3867,-8.3822,-8.3786,-8.3694,-8.4188,-8.4188,-8.4188,-8.4188,-8.3849,-8.3826,-8.4053,-8.4176,-8.4293,-8.4278,-8.4536,-8.4572,-8.4588,-8.462,-8.4545,-8.4421,-8.4386,-8.4362,-8.4313,-8.4226,-8.4845,-8.4846,-8.4846,-8.4151,-8.4137,-8.4365,-8.4383,-8.4475,-8.4555,-8.4797,-8.4939,-8.4935,-8.4872,-8.4643,-8.4616,-8.4416,-8.4353,-8.428,-8.4205,-8.4045,0,0]},{"header":{"parameterUnit":"m.s-1","parameterCategory":1,"la1":30.2992,"la2":30.254,"lo1":-89.0895,"lo2":-89.0443,"dy":0.0025,"dx":0.0025,"nx":19,"ny":19,"refTime":"2026-03-28T09:00:00:Z","depth":0,"parameterNumber":3,"parameterNumberName":"V-component_of_WINDS"},"data":[0,0,0,1.003,1.0029,1.001,1.0009,0.9995,0.9995,0,0,0,0,0,0,0,0,0,0,0,1.0043,1.0043,1.003,1.0029,1.001,1.0009,0.9995,0.9995,0,0,0,0,0,0,0,0,0,0,0,1.0043,1.0043,1.0043,1.0029,1.001,1.0009,0.9995,1.0006,0,0,0,0,0,0,0,0,0,0,1.0024,1.0043,1.0043,1.0043,1.0029,1.001,1.0009,1.0007,1.0006,1.001,0,1.0015,0,1.0005,0.9995,0.9995,0,0,0,1.0024,1.0044,1.0032,1.0043,1.0029,1.001,1.0017,1.0006,1.0005,1.0008,1.0015,1.0014,1.0005,0.9995,0.9995,1.0038,1.0039,0,0,1.0025,1.0043,1.0033,1.0032,1.0036,1.0018,1.0016,1.0005,1.0013,1.0015,1.0014,1.0005,0.9995,0.9995,1.0038,1.0039,0,0,0,1.0032,1.0044,1.0032,1.0033,1.0028,1.0017,1.0016,1.0014,1.0008,1.0013,1.0005,0.9995,0.9995,1.0037,1.0038,1.0078,0,0,0,1.0032,1.0048,1.0033,1.0044,1.0029,1.0021,1.0025,1.0009,1.0007,1.0005,0.9995,0.9995,1.0037,1.0038,1.0076,1.0094,0,0,0,1.0042,1.0049,1.0049,1.0045,1.0037,1.002,1.0014,1.0008,1.0002,0.9995,0.9995,1.0036,1.0038,1.0074,1.009,1.011,0,0,0,1.0057,1.0084,1.005,1.0077,1.0037,1.0046,1.0014,1.002,1.0019,0.9995,1.0037,1.0038,1.0073,1.0088,1.0108,1.0129,1.0139,0,0,1.0101,1.009,1.0105,1.0074,1.0093,1.0048,1.0073,1.0055,1.0037,1.0039,1.004,1.0077,1.009,1.0109,1.0196,1.0205,0,0,0,1.0125,1.0136,1.0138,1.0138,1.0125,1.0116,1.0092,1.0085,1.0086,1.0042,1.0089,1.0097,1.0107,1.0116,1.0124,1.0131,1.0043,1.0043,1.0043,1.0213,1.019,1.0214,1.0189,1.019,1.0166,1.0164,1.0151,1.0127,1.0139,1.0139,1.0194,1.0206,1.0211,1.0219,1.0149,1.015,1.015,1.015,1.0275,1.0287,1.0257,1.0268,1.0244,1.0253,1.0232,1.0215,1.022,1.0192,1.02,1.017,1.0221,1.0227,1.0153,1.0152,1.0152,1.0151,1.0151,1.0329,1.033,1.0323,1.0322,1.0324,1.0298,1.0305,1.0283,1.0263,1.0271,1.0268,1.0267,1.0263,1.0272,1.0272,1.0272,1.0272,1.0272,1.0273,1.0386,1.0377,1.0385,1.0376,1.0374,1.0368,1.0346,1.0343,1.0335,1.0318,1.0318,1.0293,1.0231,1.0215,1.0275,1.0275,1.0274,1.0274,1.0274,1.0454,1.0436,1.0449,1.0447,1.0435,1.0438,1.0412,1.0409,1.0403,1.0407,1.0382,1.034,1.0326,1.032,1.0307,1.0387,1.0387,1.0387,1.0387,1.0498,1.049,1.0499,1.0498,1.0494,1.0472,1.0487,1.0472,1.0452,1.0447,1.0433,1.0414,1.0409,1.0398,1.0391,1.0378,1.0474,1.0474,1.0474,1.0539,1.053,1.0546,1.0528,1.0517,1.0509,1.0523,1.0523,1.0497,1.0477,1.0443,1.0439,1.0408,1.04,1.0377,1.0366,1.0341,0,0]}]]